THOR ABLESTAR DEB, 645

Orbit data source: Space-Track

THOR ABLESTAR DEB, 645 is space debris in LEO originally from a launch on Thu, 29 Jun 1961 UTC launched from the Air Force Eastern Test Range (AFETR). Debris objects in space refer to the collection of defunct objects orbiting the Earth. Examples of debris include non-operational satellites, rocket bodies, and fragments generated from explosions, collisions, or faulty payload assembly.

Loading next visibility...
Identifier
645, 1961-015GW
Orbit
LEO
Country
Flag of USUS
Related business
Manufacturer
Unknown
Mission
Spacecraft
Bus & Motor
Unknown
Mass
Unknown
Launch date (UTC)
1961-06-29 (64 years ago)
Launch vehicle
Unknown
Launch site
Air Force Eastern Test Range (AFETR)
Object type
Payload
Rocket body
Debris
Shape & HBR
Unknown
Radar Cross Section
Small (<0.1 m²)

Expand to show TLE details & history
Last TLE update: 6 hours ago

TLE from 6 hours ago
0 THOR ABLESTAR DEB
1 00645U 61015GW  25258.62611814  .00000088  00000-0  31016-3 0  9999
2 00645  66.5853  88.2832 0415010 285.8791 134.0842 13.04705051 43995
Epoch: 2025-09-15T15:01Z
TLE epoch observation values (Epoch: 2025-09-15T15:01:36.607Z)
Latitude
55.14418°
Longitude
-93.72274°
Altitude
1,478.556 km
Speed
7.023 km/s
True Right ascension
08h 26m 01s
True Declination
54° 59' 51"
Sunlit
Object was in daylight at epoch
Visualization orbit readout
Latitude
Unknown
Longitude
Unknown
Altitude
Unknown
Speed
Unknown
Apparent Right ascension
Unknown
Apparent Declination
Unknown
Sunlit
N/A
Visualization observer readout
Local Sidereal Time
13:27:56
Azimuth
Unknown
Elevation
Unknown
Doppler factor
Unknown
Orbital elements
Apogee altitude
1,558.443 km
Perigee altitude
925.94 km
Semi-major axis
7,620.328 km
Eccentricity
0.0415
Inclination
66.5853°
RAAN
88.2832°
Arg. of periapsis
285.8791°
True anomaly
137.37932°
Mean anomaly
134.0842°
Eccentric anomaly
135.74362°
Mean motion
3.26274 °/min
Orbital period
110.34 mins
BSTAR
0.00031016
Loading maneuver chart data...
Computing Atmospheric mass density...

Documentation

Showing up to 5 results
|